Hourly Weather Roundup
Issued by NWS Central Illinois

Home | Current Version | Previous Version | Text Only | Print | Product List | Glossary On
Versions: 1 2 3 4 5 6 7 8 9 10 11 12 13 14 15 16 17 18 19 20 21 22 23 24 25 26 27 28 29 30 31 32 33 34 35 36 37 38 39 40 41 42 43 44 45 46 47 48 49 50
000
NZUS43 KILX 150210
HWRILX

Area Weather Roundup
National Weather Service Lincoln IL
800 PM CST THU DEC 14 2017

NOTE:  "FAIR" indicates few or no clouds below 12,000 feet, with
       no sigificant weather and/or obstructions to visibility.


CITY           SKY/WX    TMP DP  RH WIND       PRES   REMARKS
Bloomington    CLOUDY    22  13  68 NW3       30.10S
Champaign      CLOUDY    24  15  68 W5        30.10R WCI  18
Danville       CLOUDY    25  18  74 CALM      30.06S
Decatur        CLOUDY    26  15  63 W6        30.11R WCI  19
Effingham      CLOUDY    31  22  71 CALM      30.13S
Flora          CLOUDY    32  23  68 CALM      30.13R
Galesburg      CLOUDY    27  20  73 W5        30.10S WCI  22
Jacksonville   CLOUDY    27  16  62 W7        30.12F WCI  20
Lacon          CLOUDY    16  11  81 CALM      30.10S
Lawrenceville  CLOUDY    31  22  69 W3        30.11S
Litchfield     CLOUDY    28  19  68 NW3       30.12R
$$


CITY           SKY/WX    TMP DP  RH WIND       PRES   REMARKS
Lincoln        CLOUDY    27  18  69 CALM      30.11S
Macomb         CLOUDY    28  19  67 NW5       30.13S WCI  23
Mattoon        CLOUDY    29  19  66 CALM      30.10R
Mt Carmel AP   CLOUDY    31  24  75 CALM      30.11F
Olney-Noble AP CLOUDY    30  21  69 CALM      30.12S
Paris AP       CLOUDY    29  21  72 W6        30.11R WCI  23
Peoria         CLOUDY    24  14  65 CALM      30.11S
Pontiac        CLEAR     20  11  68 CALM      30.11S
Rantoul        CLOUDY    25  17  70 W3        30.09S
Robinson       CLOUDY    29  22  77 W3        30.12S
Springfield    CLOUDY    28  17  63 W5        30.12S WCI  23
Taylorville    PTCLDY    26  17  67 W6        30.12S WCI  19
$$

...REGIONAL REPORTS...


CITY           SKY/WX    TMP DP  RH WIND       PRES   REMARKS
Chicago O`Hare PTCLDY    21  11  65 SW3       30.06F
Kankakee       CLEAR     21  11  66 W3        30.09F
Moline         CLOUDY    27  17  66 W9        30.09S WCI  18
Mount Sterling CLOUDY    27  17  64 W3        30.11S
Mount Vernon   CLOUDY    31  21  66 VRB5      30.12S WCI  26
Pittsfield     CLOUDY    29  19  65 W6        30.13S WCI  23
Quincy         CLOUDY    28  19  69 SW3       30.11S
Rockford       MOCLDY    16   9  74 S5        30.08S WCI   9
$$


CITY           SKY/WX    TMP DP  RH WIND       PRES   REMARKS
Burlington     CLOUDY    27  17  66 NW5       30.10F WCI  22
Cedar Rapids   CLOUDY    25  17  72 SW6       30.06S WCI  18
Des Moines     CLOUDY    31  21  66 W5        30.09S WCI  26
Kirksville     CLOUDY    30  28  92 CALM      30.11S
Ottumwa        CLOUDY    28  18  66 CALM      30.09F
St Louis       CLOUDY    31  20  63 NW6       30.12  WCI  25
$$


CITY           SKY/WX    TMP DP  RH WIND       PRES   REMARKS
Terre Haute    CLOUDY    28  18  66 CALM      30.10R
Evansville     CLOUDY    32  22  66 W5        30.12R WCI  27
Indianapolis   CLOUDY    25  14  63 S5        30.08R WCI  19
Lafayette      CLOUDY    25  16  68 CALM      30.09R
Madison        CLOUDY    24  12  60 VRB5      30.02F WCI  18
Milwaukee      CLOUDY    20  12  71 CALM      30.05S
$$






USA.gov is the U.S. government's official web portal to all federal, state and local government web resources and services.